SCP
0 0 0 0 0 0 0 0 0 0 -0 0 0 0 0 0 0 0 0 0 0 0 0 0 0 0 0 0 0 0 0 0
0 0 0 0 0 0 0 0 -0 -0 0 0 0 0 0 0 0 0 0 0 0 0 0 0 0 0 0 0 0 0 0 0
0 0 0 0 0 0 0 0 0 0 0 0 0 0 0 0 0 0 0 0 0 0 0 0 0 0 0 0 0 0 0 0
0 0 0 0 0 0 0 0 0 0 0 0 0 0 0 0 0 0 0 0 0 0 0 0 0 0 0 0 0 0 0 0
0 0 0 0 0 0 0 0 0 0 0 0 0 0 0 0 0 0 0 0 0 0 0 0 0 0 0 0 0 0 0 0
0 0 0 0 0 0 0 0 0 0 0 0 0 0 0 0 0 0 0 0 0 0 0 0 0 0 0 0 0 0 0 0
0 0 0 0 0 0 0 0 0 0 0 0 0 0 0 0 0 0 0 0 0 0 0 0 0 0 0 0 0 0 0 0
0 0 0 0 -0 -0 -0 -0 0 0 0 0 -0 -0 -0 -0 -0 0 0 0 0 0 0 0 0 0 0 0 0 0 0 0
0 0 0 0 0 -0 0 0 0 0 0 0 0 0 -0 0 -0 -0 -0 0 0 0 0 0 0 0 0 0 0 0 0 0
0 0 0 0 0 0 0 -0 0 0 0 -0 -0 -0 0 0 0 0 0 0 0 0 0 0 0 0 0 0 0 0 0 0
0 0 0 0 0 0 0 0 -0 -0 0 0 0 0 0 0 0 0 0 0 0 0 0 0 0 0 0 0 0 0 0 0
0 0 0 0 0 0 0 -0 0 0 0 0 0 -0 0 0 0 0 0 0 0 0 0 0 0 0 0 0 0 0 0 0
0 0 0 0 0 0 0 0 0 0 0 0 0 0 0 0 0 0 0 0 0 0 0 0 0 0 0 0 0 0 0 0
0 0 0 0 0 0 0 0 0 0 0 0 0 0 0 0 0 0 0 0 0 0 0 0 0 0 0 0 0 0 0 0
0 0 0 0 0 0 0 0 0 0 0 0 0 0 0 0 0 0 0 0 0 0 0 0 0 0 0 0 0 0 0 0
0 0 0 0 0 0 0 0 0 0 0 0 0 0 0 0 0 0 0 0 0 0 0 0 0 0 0 0 0 0 0 0
0 0 0 0 0 0 0 0 0 0 0 0 0 0 0 0 0 0 0 0 0 0 0 0 0 0 0 0 0 0 0 0
0 0 0 0 0 0 0 0 0 0 0 0 0 0 0 0 0 0 0 0 0 0 0 0 0 0 0 0 0 0 0 0
0 0 0 0 0 0 0 0 0 0 0 0 0 0 0 0 0 0 0 0 0 0 0 0 0 0 0 0 0 0 0 0
0 0 0 0 0 0 0 0 0 0 0 0 0 0 0 0 0 0 0 0 0 0 0 -0 -0 -0 0 0 -0 0 0 0
Wind_Speed_500mb
22 15 11 8 8 7 10 9 16 16 17 16 20 19 23 23 24 23 22 23 23 26 26 26 28 28 29 30 32 35 40 38
20 13 5 1 3 7 10 14 17 13 15 14 15 16 22 26 26 27 29 30 30 27 30 31 29 27 27 30 32 36 38 41
27 20 21 17 12 16 13 9 11 13 12 13 14 18 24 25 27 29 31 34 32 26 26 28 26 24 25 33 36 40 40 42
25 28 27 22 20 13 18 17 20 21 16 14 16 21 26 26 30 31 29 28 28 23 22 21 22 27 31 38 40 39 40 40
31 29 24 14 18 22 26 31 27 24 13 7 15 20 22 28 29 25 26 24 14 18 26 26 29 37 37 33 33 32 35 42
27 22 16 19 23 26 22 20 17 12 14 8 5 4 16 18 31 34 33 35 39 36 43 43 40 39 29 31 31 20 29 33
19 18 19 24 29 30 32 31 28 27 27 21 24 24 22 25 22 23 19 23 21 17 30 29 28 35 32 25 14 14 21 30
26 24 28 30 29 32 33 33 31 29 27 26 29 32 33 29 29 29 26 31 34 32 31 34 35 34 31 25 12 16 19 21
23 25 28 29 29 30 36 36 35 33 34 33 36 38 34 30 28 27 25 25 27 26 28 33 35 38 36 34 24 14 21 19
20 26 25 24 26 29 36 40 41 42 45 48 48 42 31 32 27 22 27 31 30 29 28 26 27 32 30 23 11 23 22 20
17 17 20 22 27 31 37 40 39 41 44 51 50 42 39 27 33 32 33 32 29 26 25 23 25 26 23 22 15 21 17 17
11 13 14 22 26 30 38 43 44 46 53 51 44 40 35 37 40 38 37 38 33 27 24 21 21 23 22 22 18 19 19 17
5 9 13 19 25 31 34 36 36 42 44 41 41 42 41 41 40 42 42 37 31 28 27 26 27 23 22 23 25 23 22 16
8 12 19 19 25 30 30 32 37 35 40 39 41 42 42 43 46 45 38 31 28 25 23 23 22 21 21 22 25 28 25 20
6 20 25 22 26 25 27 30 32 39 43 39 43 44 43 46 47 45 45 33 29 28 26 23 20 20 18 24 25 27 28 27
11 15 21 20 21 25 25 30 36 43 35 39 41 37 40 42 44 46 43 36 33 30 24 23 23 21 20 23 16 17 21 21
15 17 16 16 21 23 28 35 41 37 38 41 37 38 37 37 37 37 33 30 29 25 22 24 23 20 24 27 15 19 22 15
15 15 10 14 24 27 34 36 37 38 39 39 39 36 32 31 31 31 29 26 23 20 21 25 23 22 24 22 18 4 8 9
4 9 19 21 26 29 32 36 37 39 37 34 34 32 30 31 33 31 28 25 24 22 21 22 20 16 18 18 16 17 12 3
11 16 22 25 25 27 29 33 36 33 34 32 37 39 46 40 32 30 27 20 16 16 17 23 14 9 10 13 14 12 9 10
Wind_Direction_500mb
109 134 141 133 162 185 191 225 239 228 252 228 193 200 196 198 209 223 229 237 247 255 263 272 282 285 283 282 294 304 314 318
133 133 120 89 261 234 258 271 335 301 238 237 213 214 210 219 231 244 250 255 263 261 258 264 271 275 277 288 296 309 315 321
79 95 95 80 59 65 60 29 314 318 272 285 252 239 234 237 250 257 257 258 260 256 254 259 263 266 281 297 309 312 316 321
91 96 90 81 78 68 46 33 12 359 328 299 270 260 256 261 260 257 244 234 233 242 246 245 258 273 284 300 299 306 311 316
87 87 84 84 63 42 18 14 7 352 327 318 277 256 252 255 250 239 235 229 239 227 257 260 278 294 297 294 291 293 310 314
84 90 83 57 50 40 32 25 11 352 312 321 24 259 247 262 259 262 266 272 269 281 273 283 290 282 270 267 272 313 314 312
72 63 50 38 31 29 24 23 20 16 3 340 329 319 307 292 298 288 299 292 275 282 295 285 269 266 269 266 288 322 328 327
56 50 41 32 28 27 26 24 19 19 14 1 350 348 346 339 323 318 311 313 316 310 288 285 292 278 263 277 280 296 311 320
48 41 36 30 22 13 20 14 19 13 9 3 1 354 348 346 345 342 348 346 340 323 299 288 280 285 288 308 295 341 323 319
44 37 31 22 16 21 16 10 4 2 3 360 353 350 344 338 342 344 339 341 337 330 321 312 302 290 286 282 264 314 301 305
39 24 28 27 19 12 9 3 359 357 352 346 345 348 350 353 345 342 341 338 342 345 339 316 301 293 293 279 289 291 282 287
35 30 22 8 5 3 358 352 348 344 340 343 351 353 350 344 339 334 328 325 329 329 327 320 312 303 288 283 257 266 277 280
57 22 353 349 352 347 340 336 332 332 340 345 347 344 339 337 336 334 332 322 317 323 318 313 316 312 294 285 265 266 281 272
36 360 349 344 339 334 329 327 331 344 340 336 335 335 333 333 332 336 341 341 338 339 328 314 310 314 299 290 282 281 271 276
298 352 343 327 325 324 328 333 337 336 336 337 334 330 329 330 334 334 332 334 336 339 346 346 342 335 320 308 287 280 271 264
262 321 327 314 323 325 331 330 331 332 334 337 335 333 328 331 331 330 327 321 326 332 335 339 337 328 332 344 312 280 271 273
256 287 304 325 325 326 328 328 329 331 328 333 332 329 327 330 331 335 336 326 321 318 325 337 346 342 343 339 323 295 268 271
281 295 327 333 331 326 329 334 336 335 332 333 333 333 331 330 332 338 341 337 328 320 336 342 348 350 1 10 358 348 158 176
343 10 343 343 336 342 344 344 340 338 337 337 334 327 325 323 319 318 324 334 338 327 331 321 329 352 3 20 45 53 56 114
39 0 348 343 343 345 344 342 342 346 344 343 338 338 338 329 328 324 314 314 335 340 3 9 352 356 356 358 2 17 34 30
Wind_Speed_850mb
22 15 11 8 8 7 10 9 16 16 17 16 20 19 23 23 24 23 22 23 23 26 26 26 28 28 29 30 32 35 40 38
20 13 5 1 3 7 10 14 17 13 15 14 15 16 22 26 26 27 29 30 30 27 30 31 29 27 27 30 32 36 38 41
27 20 21 17 12 16 13 9 11 13 12 13 14 18 24 25 27 29 31 34 32 26 26 28 26 24 25 33 36 40 40 42
25 28 27 22 20 13 18 17 20 21 16 14 16 21 26 26 30 31 29 28 28 23 22 21 22 27 31 38 40 39 40 40
31 29 24 14 18 22 26 31 27 24 13 7 15 20 22 28 29 25 26 24 14 18 26 26 29 37 37 33 33 32 35 42
27 22 16 19 23 26 22 20 17 12 14 8 5 4 16 18 31 34 33 35 39 36 43 43 40 39 29 31 31 20 29 33
19 18 19 24 29 30 32 31 28 27 27 21 24 24 22 25 22 23 19 23 21 17 30 29 28 35 32 25 14 14 21 30
26 24 28 30 29 32 33 33 31 29 27 26 29 32 33 29 29 29 26 31 34 32 31 34 35 34 31 25 12 16 19 21
23 25 28 29 29 30 36 36 35 33 34 33 36 38 34 30 28 27 25 25 27 26 28 33 35 38 36 34 24 14 21 19
20 26 25 24 26 29 36 40 41 42 45 48 48 42 31 32 27 22 27 31 30 29 28 26 27 32 30 23 11 23 22 20
17 17 20 22 27 31 37 40 39 41 44 51 50 42 39 27 33 32 33 32 29 26 25 23 25 26 23 22 15 21 17 17
11 13 14 22 26 30 38 43 44 46 53 51 44 40 35 37 40 38 37 38 33 27 24 21 21 23 22 22 18 19 19 17
5 9 13 19 25 31 34 36 36 42 44 41 41 42 41 41 40 42 42 37 31 28 27 26 27 23 22 23 25 23 22 16
8 12 19 19 25 30 30 32 37 35 40 39 41 42 42 43 46 45 38 31 28 25 23 23 22 21 21 22 25 28 25 20
6 20 25 22 26 25 27 30 32 39 43 39 43 44 43 46 47 45 45 33 29 28 26 23 20 20 18 24 25 27 28 27
11 15 21 20 21 25 25 30 36 43 35 39 41 37 40 42 44 46 43 36 33 30 24 23 23 21 20 23 16 17 21 21
15 17 16 16 21 23 28 35 41 37 38 41 37 38 37 37 37 37 33 30 29 25 22 24 23 20 24 27 15 19 22 15
15 15 10 14 24 27 34 36 37 38 39 39 39 36 32 31 31 31 29 26 23 20 21 25 23 22 24 22 18 4 8 9
4 9 19 21 26 29 32 36 37 39 37 34 34 32 30 31 33 31 28 25 24 22 21 22 20 16 18 18 16 17 12 3
11 16 22 25 25 27 29 33 36 33 34 32 37 39 46 40 32 30 27 20 16 16 17 23 14 9 10 13 14 12 9 10
Wind_Direction_850mb
109 134 141 133 162 185 191 225 239 228 252 228 193 200 196 198 209 223 229 237 247 255 263 272 282 285 283 282 294 304 314 318
133 133 120 89 261 234 258 271 335 301 238 237 213 214 210 219 231 244 250 255 263 261 258 264 271 275 277 288 296 309 315 321
79 95 95 80 59 65 60 29 314 318 272 285 252 239 234 237 250 257 257 258 260 256 254 259 263 266 281 297 309 312 316 321
91 96 90 81 78 68 46 33 12 359 328 299 270 260 256 261 260 257 244 234 233 242 246 245 258 273 284 300 299 306 311 316
87 87 84 84 63 42 18 14 7 352 327 318 277 256 252 255 250 239 235 229 239 227 257 260 278 294 297 294 291 293 310 314
84 90 83 57 50 40 32 25 11 352 312 321 24 259 247 262 259 262 266 272 269 281 273 283 290 282 270 267 272 313 314 312
72 63 50 38 31 29 24 23 20 16 3 340 329 319 307 292 298 288 299 292 275 282 295 285 269 266 269 266 288 322 328 327
56 50 41 32 28 27 26 24 19 19 14 1 350 348 346 339 323 318 311 313 316 310 288 285 292 278 263 277 280 296 311 320
48 41 36 30 22 13 20 14 19 13 9 3 1 354 348 346 345 342 348 346 340 323 299 288 280 285 288 308 295 341 323 319
44 37 31 22 16 21 16 10 4 2 3 360 353 350 344 338 342 344 339 341 337 330 321 312 302 290 286 282 264 314 301 305
39 24 28 27 19 12 9 3 359 357 352 346 345 348 350 353 345 342 341 338 342 345 339 316 301 293 293 279 289 291 282 287
35 30 22 8 5 3 358 352 348 344 340 343 351 353 350 344 339 334 328 325 329 329 327 320 312 303 288 283 257 266 277 280
57 22 353 349 352 347 340 336 332 332 340 345 347 344 339 337 336 334 332 322 317 323 318 313 316 312 294 285 265 266 281 272
36 360 349 344 339 334 329 327 331 344 340 336 335 335 333 333 332 336 341 341 338 339 328 314 310 314 299 290 282 281 271 276
298 352 343 327 325 324 328 333 337 336 336 337 334 330 329 330 334 334 332 334 336 339 346 346 342 335 320 308 287 280 271 264
262 321 327 314 323 325 331 330 331 332 334 337 335 333 328 331 331 330 327 321 326 332 335 339 337 328 332 344 312 280 271 273
256 287 304 325 325 326 328 328 329 331 328 333 332 329 327 330 331 335 336 326 321 318 325 337 346 342 343 339 323 295 268 271
281 295 327 333 331 326 329 334 336 335 332 333 333 333 331 330 332 338 341 337 328 320 336 342 348 350 1 10 358 348 158 176
343 10 343 343 336 342 344 344 340 338 337 337 334 327 325 323 319 318 324 334 338 327 331 321 329 352 3 20 45 53 56 114
39 0 348 343 343 345 344 342 342 346 344 343 338 338 338 329 328 324 314 314 335 340 3 9 352 356 356 358 2 17 34 30